This demonstration page uses our WeatherBlox Daily Observations layout. Learn more.

40.92945, -100.16068

Hourly Observations for January 4, 2015

Temp ( °F °C ) Dew Point ( °F °C ) Humidity (%) Winds ( mph kmh ) Pressure ( in mb ) Visibility ( mi km ) Precip ( " mm )
12:15 am 00:15 Cloudy 8 -13.4 -1 -18.2 67 67 NNW 25 41 30.53 1034 10 16.0934 N/A
12:35 am 00:35 Mostly Cloudy 8 -13.6 -1 -18.6 66 66 NNW 22 35 30.59 1036 10 16.0934 N/A
12:55 am 00:55 Partly Cloudy 7 -14.1 -3 -19.2 66 66 NNW 23 37 30.59 1036 7 11.26538 N/A
1:15 am 01:15 Partly Cloudy 6 -14.5 -3 -19.7 65 65 NNW 17 28 30.59 1036 10 16.0934 N/A
1:35 am 01:35 Mostly Cloudy 6 -14.3 -3 -19.5 65 65 NNW 23 37 30.59 1036 10 16.0934 N/A
1:55 am 01:55 Cloudy 6 -14.2 -3 -19.7 63 63 NNW 15 24 30.59 1036 10 16.0934 N/A
2:15 am 02:15 Mostly Cloudy 6 -14.3 -3 -19.6 64 64 NNW 15 24 30.62 1037 10 16.0934 N/A
2:35 am 02:35 Partly Cloudy 5 -15 -5 -20.3 64 64 NNW 15 24 30.62 1037 10 16.0934 N/A
2:55 am 02:55 Clear 4 -15.5 -6 -21.2 62 62 NNW 17 28 30.62 1037 10 16.0934 N/A
3:15 am 03:15 Clear 3 -16 -7 -21.6 62 62 NW 15 24 30.65 1038 10 16.0934 N/A
3:35 am 03:35 Clear 3 -16.3 -7 -21.7 63 63 NW 16 26 30.65 1038 10 16.0934 N/A
3:55 am 03:55 Clear 2 -16.6 -7 -21.7 65 65 NW 13 20 30.65 1038 10 16.0934 N/A
4:15 am 04:15 Clear 2 -16.6 -7 -21.4 67 67 NW 13 20 30.65 1038 10 16.0934 N/A
4:35 am 04:35 Clear 1 -17 -7 -21.5 68 68 NW 14 22 30.68 1039 10 16.0934 N/A
4:55 am 04:55 Clear 1 -17.1 -7 -21.9 67 67 NW 13 20 30.68 1039 10 16.0934 N/A
5:15 am 05:15 Clear 1 -17.5 -8 -22.2 67 67 NW 6 9 30.68 1039 10 16.0934 N/A
5:35 am 05:35 Clear 0 -18 -8 -22.3 69 69 NW 9 15 30.68 1039 10 16.0934 N/A
5:55 am 05:55 Clear -1 -18.1 -8 -22.3 70 70 NW 8 13 30.68 1039 10 16.0934 N/A
6:15 am 06:15 Clear -1 -18.1 -8 -22.2 70 70 NW 9 15 30.68 1039 10 16.0934 N/A
6:35 am 06:35 Clear -1 -18.4 -8 -22.2 72 72 NW 8 13 30.68 1039 10 16.0934 N/A
6:55 am 06:55 Clear -3 -19.5 -9 -22.9 75 75 NW 9 15 30.71 1040 10 16.0934 N/A
7:15 am 07:15 Clear -4 -20 -10 -23.1 76 76 WNW 6 9 30.71 1040 10 16.0934 N/A
7:35 am 07:35 Clear -3 -19.5 -9 -22.6 77 77 WNW 12 19 30.74 1041 10 16.0934 N/A
7:55 am 07:55 Clear -3 -19.5 -9 -22.8 75 75 WNW 9 15 30.74 1041 10 16.0934 N/A
8:15 am 08:15 Sunny -3 -19.4 -9 -22.6 76 76 WNW 8 13 30.74 1041 10 16.0934 N/A
8:35 am 08:35 Sunny -3 -19.2 -9 -22.5 75 75 WNW 10 17 30.74 1041 10 16.0934 N/A
8:55 am 08:55 Sunny -1 -18.6 -8 -22 75 75 NW 9 15 30.77 1042 10 16.0934 N/A
9:15 am 09:15 Sunny 0 -18 -7 -21.6 74 74 NW 10 17 30.77 1042 10 16.0934 N/A
9:35 am 09:35 Sunny 1 -17.5 -7 -21.5 71 71 WNW 13 20 30.77 1042 10 16.0934 N/A
9:55 am 09:55 Sunny 1 -17.1 -6 -21 72 72 NW 9 15 30.77 1042 10 16.0934 N/A
10:15 am 10:15 Sunny 2 -16.5 -6 -20.9 69 69 WNW 8 13 30.77 1042 10 16.0934 N/A
10:35 am 10:35 Sunny 3 -15.9 -5 -20.5 68 68 WNW 9 15 30.8 1043 10 16.0934 N/A
10:55 am 10:55 Sunny 4 -15.5 -5 -20.4 66 66 WNW 9 15 30.8 1043 10 16.0934 N/A
11:15 am 11:15 Sunny 5 -15.1 -4 -20.2 65 65 WNW 9 15 30.8 1043 10 16.0934 N/A
11:35 am 11:35 Sunny 6 -14.7 -3 -19.7 66 66 NW 7 11 30.77 1042 10 16.0934 N/A
11:55 am 11:55 Sunny 6 -14.2 -3 -19.4 65 65 WNW 8 13 30.74 1041 10 16.0934 N/A
12:15 pm 12:15 Sunny 7 -13.8 -2 -19.1 65 65 WNW 7 11 30.74 1041 10 16.0934 N/A
12:35 pm 12:35 Sunny 8 -13.4 -2 -18.7 65 65 NW 6 9 30.71 1040 10 16.0934 N/A
12:55 pm 12:55 Sunny 9 -12.9 -2 -18.9 61 61 NW 7 11 30.71 1040 10 16.0934 N/A
1:15 pm 13:15 Sunny 9 -12.6 -1 -18.4 62 62 WNW 6 9 30.71 1040 10 16.0934 N/A
1:35 pm 13:35 Sunny 10 -12.2 -1 -18.5 60 60 NW 3 6 30.65 1038 10 16.0934 N/A
1:55 pm 13:55 Sunny 10 -12 -1 -18.2 60 60 NNE 5 7 30.65 1038 10 16.0934 N/A
2:15 pm 14:15 Sunny 11 -11.5 -1 -18.3 57 57 N 6 9 30.65 1038 10 16.0934 N/A
2:35 pm 14:35 Sunny 12 -11.1 -2 -18.7 54 54 Calm 30.65 1038 10 16.0934 N/A
2:55 pm 14:55 Sunny 12 -11 -3 -19.7 49 49 Calm 30.65 1038 10 16.0934 N/A
3:15 pm 15:15 Sunny 13 -10.7 -3 -19.6 48 48 Calm 30.68 1039 10 16.0934 N/A
3:35 pm 15:35 Sunny 13 -10.4 -3 -19.7 47 47 Calm 30.68 1039 10 16.0934 N/A
3:55 pm 15:55 Sunny 13 -10.6 -3 -19.7 48 48 Calm 30.71 1040 10 16.0934 N/A
4:15 pm 16:15 Sunny 13 -10.8 -1 -18.5 53 53 Calm 30.71 1040 10 16.0934 N/A
4:35 pm 16:35 Sunny 12 -11.1 -1 -18.3 56 56 Calm 30.71 1040 10 16.0934 N/A
4:55 pm 16:55 Sunny 11 -11.5 -1 -18.4 57 57 Calm 30.71 1040 10 16.0934 N/A
5:15 pm 17:15 Partly Cloudy 11 -11.5 -1 -18.6 56 56 Calm 30.71 1040 10 16.0934 N/A
5:35 pm 17:35 Mostly Cloudy 11 -11.8 -2 -19 55 55 Calm 30.71 1040 10 16.0934 N/A
5:55 pm 17:55 Cloudy 11 -11.6 -1 -18.3 58 58 Calm 30.71 1040 10 16.0934 N/A
6:15 pm 18:15 Cloudy 12 -11.1 2 -16.7 64 64 NE 3 6 30.71 1040 10 16.0934 N/A
6:35 pm 18:35 Cloudy 12 -11.1 0 -18 57 57 NE 3 6 30.74 1041 10 16.0934 N/A
6:55 pm 18:55 Cloudy with Light Snow 12 -11.1 1 -17 62 62 ENE 5 7 30.74 1041 10 16.0934 N/A
7:15 pm 19:15 Cloudy with Light Snow 12 -11.3 2 -16.7 65 65 Calm 30.74 1041 7 11.26538 N/A
7:35 pm 19:35 Cloudy with Light Snow 11 -11.5 3 -16 70 70 E 3 6 30.74 1041 5 8.0467 N/A
7:55 pm 19:55 Cloudy 11 -11.8 3 -16.2 70 70 ESE 6 9 30.77 1042 10 16.0934 N/A
8:15 pm 20:15 Cloudy 11 -11.9 3 -16 72 72 E 6 9 30.77 1042 10 16.0934 N/A
8:35 pm 20:35 Cloudy 10 -12 3 -16.1 72 72 ENE 5 7 30.77 1042 10 16.0934 N/A
8:55 pm 20:55 Cloudy 10 -12 4 -15.3 77 77 E 3 6 30.8 1043 10 16.0934 N/A
9:15 pm 21:15 Cloudy 11 -11.8 4 -15.3 75 75 E 3 6 30.8 1043 10 16.0934 N/A
9:35 pm 21:35 Cloudy 11 -11.7 4 -15.5 74 74 ESE 3 6 30.8 1043 10 16.0934 N/A
9:55 pm 21:55 Cloudy 11 -11.7 3 -16 71 71 Calm 30.8 1043 10 16.0934 N/A
10:15 pm 22:15 Cloudy 11 -11.8 3 -16 71 71 Calm 30.8 1043 10 16.0934 N/A
10:35 pm 22:35 Mostly Cloudy 10 -12 3 -16 72 72 Calm 30.83 1044 10 16.0934 N/A
10:55 pm 22:55 Mostly Cloudy 10 -12.2 3 -16.1 73 73 Calm 30.8 1043 10 16.0934 N/A
11:15 pm 23:15 Mostly Cloudy 9 -12.7 4 -15.8 78 78 Calm 30.8 1043 10 16.0934 N/A
11:35 pm 23:35 Mostly Cloudy 9 -13 3 -16 78 78 SW 3 6 30.83 1044 10 16.0934 N/A
11:55 pm 23:55 Cloudy 9 -12.8 4 -15.6 80 80 SSW 6 9 30.8 1043 10 16.0934 N/A

Powered by AerisWeather